Regional Weather Roundup
Issued by NWS

Home | Current Version | Previous Version | Graphics & Text | Print | Product List | Glossary On
Versions: 1 2 3 4 5 6 7 8 9 10 11 12 13 14 15 16 17 18 19 20 21 22 23 24 25 26 27
000
ASUS45 KCYS 300310
RWRWY

WYOMING REGIONAL WEATHER ROUNDUP
NATIONAL WEATHER SERVICE CHEYENNE WY
900 PM MDT FRI JUL 29 2016

NOTE:  "FAIR" INDICATES FEW OR NO CLOUDS BELOW 12,000 FEET
WITH NO SIGNIFICANT WEATHER AND/OR OBSTRUCTIONS TO VISIBILITY.

WYZ001-300400-
YELLOWSTONE NATIONAL PARK

CITY           SKY/WX    TMP DP  RH WIND       PRES   REMARKS
LK YELLOWSTONE   N/A     62  41  46 NW3       30.25R
W YELLOWSTONE  NOT AVBL

$$
WYZ002>013-054>058-071-098>099-300400-
NORTHERN WYOMING

CITY           SKY/WX    TMP DP  RH WIND       PRES   REMARKS
JACKSON        NOT AVBL
CODY           FAIR      70  54  56 NW5       30.08F
GREYBULL       MOCLDY    81  45  28 N12       29.97R
WORLAND        FAIR      80  43  26 N7        29.97R
SHERIDAN       FAIR      73  50  44 NW3       30.00S
BUFFALO        FAIR      72  48  42 W5        30.08S
GILLETTE       FAIR      73  51  46 E10       30.04R
HULETT         FAIR      68  54  60 SE5       30.06S
NEWCASTLE      MOCLDY    70  50  49 SE8       30.05R

$$
WYZ014>020-022>026-101>103-300400-
CENTRAL WYOMING

CITY           SKY/WX    TMP DP  RH WIND       PRES   REMARKS
BIG PINEY      FAIR      67  34  29 NW10      30.17R
PINEDALE       FAIR      70  34  26 W9        30.17R
DUBOIS         FAIR      68  41  37 SE9       30.18R
LANDER         FAIR      75  45  34 NW6       30.09R
RIVERTON       FAIR      75  43  31 NE3       30.07R
CASPER         FAIR      69  53  56 SE14      30.07F
DOUGLAS        MOCLDY    70  54  56 SW13      30.16R

$$
WYZ021-027>030-104>119-300400-
SOUTHERN WYOMING

CITY           SKY/WX    TMP DP  RH WIND       PRES   REMARKS
EVANSTON       FAIR      75  29  18 W9        30.20R
KEMMERER         N/A    N/A N/A N/A W6        30.20R
FORT BRIDGER   CLEAR     75  25  15 W6        30.21R
ROCK SPRINGS   FAIR      78  22  12 W13       30.12R
DIXON          FAIR      76  24  14 NW5       30.11S
RAWLINS        FAIR      73  43  33 NE17      30.14R
SARATOGA       FAIR      72  34  25 E12       30.13R
LARAMIE        FAIR      64  51  62 SE12      30.22R
CHEYENNE       FAIR      64  53  67 E13       30.18R
TORRINGTON     FAIR      62  57  83 S5        30.08R
PINE BLUFFS    FAIR      64  55  72 E13       30.14S

$$




USA.gov is the U.S. government's official web portal to all federal, state and local government web resources and services.